Location: Luxembourg
(49.6117°N, 6.1300°E)
Time: 03:35:16
(UTC+01:00)

Vanguard 2 Rocket - Pass Details

Date: 17 January 2026
Orbit: 553 x 3286 km, 32.9° (Epoch: 10 February)

Event Time Altitude Azimuth Distance (km) Brightness Sun altitude
Exits shadow 04:32:34 19° 187° (S) 3,779 9.8 -37.0°
Drops below altitude 10° 04:39:53 10° 158° (SSE) 5,169 10.8 -35.8°
Sets 04:46:22 0° 144° (SE) 6,654 11.6 -34.8°
